Miscellaneous Local Product
Issued by NWS North Platte, NE

Home | Current Version | Previous Version | Text Only | Print | Product List | Glossary On
Versions: 1 2 3 4 5 6 7 8 9 10 11 12 13 14 15 16 17 18 19 20 21 22 23 24 25 26 27 28 29 30 31 32 33 34 35 36 37 38 39 40 41 42 43 44 45 46 47 48 49 50
000
AXUS43 KLBF 262310
MISLBF


WESTERN AND NORTH CENTRAL NEBRASKA HOURLY WEATHER ROUNDUP
NATIONAL WEATHER SERVICE NORTH PLATTE NE
600 PM CDT FRI AUG 26 2016

NOTE: "FAIR" INDICATES FEW OR NO CLOUDS BELOW 12,000 FEET WITH NO
SIGNIFICANT WEATHER AND/OR OBSTRUCTIONS TO VISIBILITY.

NOTE: STATIONS NOT REPORTING VARIABLES SUCH AS SKY/WEATHER OR
PRESSURE ARE PROVIDED BY RAWS AND APRS NETWORKS AND ARE NOT UNDER
NATIONAL WEATHER SERVICE QUALITY CONTROL.

...OBSERVATIONS IN AND NEAR THE EASTERN PANHANDLE OF NEBRASKA...

CITY           SKY/WX    TMP DP  RH WIND       PRES   REMARKS
PINE RIDGE     SUNNY     70  56  61 S12G18    30.01F
CHADRON        CLOUDY    74  51  44 S9        29.99F
ALLIANCE       SUNNY     66  51  58 SE9       30.06S
SIDNEY         PTSUNNY   67  56  67 E5        30.11R
CRESCENT LAKE    N/A     67  56  67 SE6G15      N/A
$$

...OBSERVATIONS IN NORTHERN NEBRASKA AND FAR SOUTHERN SOUTH DAKOTA...

CITY           SKY/WX    TMP DP  RH WIND       PRES   REMARKS
WINNER         LGT RAIN  66  59  78 SE14      30.02F
VALENTINE      CLOUDY    62  58  86 E10       30.04F
THEDFORD       CLOUDY    62  59  92 NE7       30.07F
AINSWORTH      CLOUDY    64  57  79 N10       30.08F
O`NEILL        CLOUDY    72  54  53 E10       30.07F
ORD            CLOUDY    71  54  54 SE9       30.04F
BROKEN BOW     CLOUDY    67  58  72 E5        30.07S
VALENTINE NWR    N/A     61  59  92 NE6G13      N/A
BUTTE            N/A     71  56  58 E6          N/A
HALSEY           N/A     61  58  90 W5          N/A
EWING            N/A     71  61  70 E3          N/A
$$

...OBSERVATIONS IN SOUTHWEST NEBRASKA AND FAR NORTHEAST COLORADO...

CITY           SKY/WX    TMP DP  RH WIND       PRES   REMARKS
WRAY           FAIR      59  55  88 NE12      30.05S
HOLYOKE        FAIR      61  57  88 E7        30.09R
IMPERIAL       TSTM      59  58  96 E17       30.05F FOG
OGALLALA       CLOUDY    61  57  88 NE6       30.06F
NORTH PLATTE   LGT RAIN  62  59  90 N8        30.08F
MCCOOK         CLOUDY    68  63  84 N5        30.02F
LEXINGTON      PTSUNNY   71  58  64 E7        30.05F
STAPLETON        N/A     61  58  90 CALM        N/A
GOTHENBURG       N/A     69  55  60 E5          N/A
CALLAWAY         N/A     68  58  70 SE5         N/A
$$

...OBSERVATIONS IN CENTRAL LINCOLN COUNTY AREA...

CITY           SKY/WX    TMP DP  RH WIND       PRES   REMARKS
N.P. AIRPORT   LGT RAIN  62  59  90 N8        30.08F
N.P. DOWNTOWN    N/A     61  60  95 E8          N/A
N.P. SOUTHEAST   N/A     60  58  93 CALM        N/A
N.P. HILLCREST   N/A     60  58  93 E9          N/A
$$

...SOME OBSERVATIONS FROM AROUND THE REGION...

CITY           SKY/WX    TMP DP  RH WIND       PRES   REMARKS
DENVER         CLOUDY    75  38  26 N12       30.06S
LARAMIE        CLOUDY    69  26  20 N6        30.13S
CHEYENNE       CLOUDY    64  45  49 E8        30.11F
SCOTTSBLUFF    CLOUDY    67  53  61 E13       30.04F
RAPID CITY     SUNNY     68  54  60 SE15      29.98F
BISMARCK       SUNNY     69  51  52 S13       30.02F
PIERRE         CLOUDY    64  55  72 E12       30.03F
SIOUX FALLS    CLOUDY    72  58  61 SE9       30.10F
OMAHA          LGT RAIN  70  63  78 E6        30.04F
GRAND ISLAND   CLOUDY    68  61  78 E7        30.05F
KANSAS CITY    PTSUNNY   81  70  69 SE10G18   29.96F
WICHITA        MOSUNNY   83  66  56 S6        29.97F
OKLAHOMA CITY  CLOUDY    88  64  44 E9        29.97S
DALLAS         CLOUDY    87  69  54 E12       29.98R HX  91
AMARILLO       MOSUNNY   83  57  41 S13       30.06S
DODGE CITY     MOSUNNY   79  61  53 S9        30.02F
HAYS           PTSUNNY   75  59  57 SW3       30.01F
GOODLAND       PTSUNNY   69  61  75 SE8       30.02F
$$




USA.gov is the U.S. government's official web portal to all federal, state and local government web resources and services.